Time,TemperatureF,DewpointF,PressureIn,WindDirection,WindDirectionDegrees,WindSpeedMPH,WindSpeedGustMPH,Humidity,HourlyPrecipIn,Conditions,Clouds,dailyrainin,SoftwareType,DateUTC
2013-10-28 00:00:00,33.9,27.5,30.04,SSW,210,2.0,3.0,77,0.00,,,0.00,VWS V14.01,2013-10-28 05:00:00,
2013-10-28 00:01:00,35.2,28.1,30.06,SSW,210,2.0,3.0,75,0.00,,,0.00,VWS V14.01,2013-10-28 05:01:00,
2013-10-28 00:06:00,35.1,28.3,30.06,SSW,210,1.0,3.0,76,0.00,,,0.00,VWS V14.01,2013-10-28 05:06:00,
2013-10-28 00:11:00,34.8,27.7,30.06,SSW,210,2.0,3.0,75,0.00,,,0.00,VWS V14.01,2013-10-28 05:11:00,
2013-10-28 00:15:00,33.3,27.5,30.04,SSW,210,1.0,3.0,79,0.00,,,0.00,VWS V14.01,2013-10-28 05:15:00,
2013-10-28 00:16:00,34.7,28.2,30.06,SSW,210,0.0,0.0,77,0.00,,,0.00,VWS V14.01,2013-10-28 05:16:00,
2013-10-28 00:21:00,35.0,28.5,30.07,SSW,210,0.0,1.0,77,0.00,,,0.00,VWS V14.01,2013-10-28 05:21:00,
2013-10-28 00:26:00,35.3,28.5,30.07,SSW,210,0.0,2.0,76,0.00,,,0.00,VWS V14.01,2013-10-28 05:26:00,
2013-10-28 00:30:00,33.9,27.8,30.05,SSW,210,2.0,3.0,78,0.00,,,0.00,VWS V14.01,2013-10-28 05:30:00,
2013-10-28 00:32:00,34.9,27.5,30.07,SSW,210,0.0,0.0,74,0.00,,,0.00,VWS V14.01,2013-10-28 05:32:00,
2013-10-28 00:37:00,34.3,27.2,30.07,SSW,210,0.0,0.0,75,0.00,,,0.00,VWS V14.01,2013-10-28 05:37:00,
2013-10-28 00:42:00,32.9,26.2,30.08,SSW,210,0.0,1.0,76,0.00,,,0.00,VWS V14.01,2013-10-28 05:42:00,
2013-10-28 00:45:00,34.2,28.4,30.05,SSW,210,2.0,3.0,79,0.00,,,0.00,VWS V14.01,2013-10-28 05:45:00,
2013-10-28 00:47:00,32.3,26.5,30.08,SSW,210,0.0,0.0,79,0.00,,,0.00,VWS V14.01,2013-10-28 05:47:00,
2013-10-28 00:52:00,32.0,26.2,30.08,SSW,210,0.0,0.0,79,0.00,,,0.00,VWS V14.01,2013-10-28 05:52:00,
2013-10-28 00:57:00,31.5,25.4,30.08,SSW,210,0.0,0.0,78,0.00,,,0.00,VWS V14.01,2013-10-28 05:57:00,
2013-10-28 01:00:00,35.2,28.1,30.06,SSW,210,2.0,3.0,75,0.00,,,0.00,VWS V14.01,2013-10-28 06:00:00,
2013-10-28 01:02:00,30.8,25.4,30.08,SSW,210,0.0,0.0,80,0.00,,,0.00,VWS V14.01,2013-10-28 06:02:00,
2013-10-28 01:07:00,30.5,25.4,30.08,SSW,210,0.0,0.0,81,0.00,,,0.00,VWS V14.01,2013-10-28 06:07:00,
2013-10-28 01:12:00,30.2,25.4,30.08,SSW,210,0.0,0.0,82,0.00,,,0.00,VWS V14.01,2013-10-28 06:12:00,
2013-10-28 01:15:00,34.7,28.2,30.06,SSW,210,0.0,3.0,77,0.00,,,0.00,VWS V14.01,2013-10-28 06:15:00,
2013-10-28 01:17:00,29.9,25.4,30.08,SSW,210,0.0,0.0,83,0.00,,,0.00,VWS V14.01,2013-10-28 06:17:00,
2013-10-28 01:22:00,29.9,25.7,30.08,SSW,210,0.0,0.0,84,0.00,,,0.00,VWS V14.01,2013-10-28 06:22:00,
2013-10-28 01:27:00,29.9,26.0,30.08,SSW,210,0.0,0.0,85,0.00,,,0.00,VWS V14.01,2013-10-28 06:27:00,
2013-10-28 01:30:00,35.0,27.9,30.07,SSW,210,0.0,2.0,75,0.00,,,0.00,VWS V14.01,2013-10-28 06:30:00,
2013-10-28 01:32:00,29.9,25.7,30.08,SSW,210,0.0,0.0,84,0.00,,,0.00,VWS V14.01,2013-10-28 06:32:00,
2013-10-28 01:37:00,29.7,25.5,30.08,SSW,210,0.0,0.0,84,0.00,,,0.00,VWS V14.01,2013-10-28 06:37:00,
2013-10-28 01:42:00,29.4,25.2,30.08,SSW,210,0.0,0.0,84,0.00,,,0.00,VWS V14.01,2013-10-28 06:42:00,
2013-10-28 01:45:00,32.4,26.6,30.08,SSW,210,0.0,1.0,79,0.00,,,0.00,VWS V14.01,2013-10-28 06:45:00,
2013-10-28 01:47:00,29.1,24.9,30.08,SSW,210,0.0,0.0,84,0.00,,,0.00,VWS V14.01,2013-10-28 06:47:00,
2013-10-28 01:52:00,28.8,24.6,30.08,SSW,210,0.0,1.0,84,0.00,,,0.00,VWS V14.01,2013-10-28 06:52:00,
2013-10-28 01:57:00,28.4,24.8,30.08,SSW,210,0.0,1.0,86,0.00,,,0.00,VWS V14.01,2013-10-28 06:57:00,
2013-10-28 02:00:00,31.0,25.3,30.08,SSW,210,0.0,0.0,79,0.00,,,0.00,VWS V14.01,2013-10-28 07:00:00,
2013-10-28 02:03:00,28.5,25.1,30.08,SSW,210,0.0,0.0,87,0.00,,,0.00,VWS V14.01,2013-10-28 07:03:00,
2013-10-28 02:08:00,28.5,25.1,30.08,SSW,210,0.0,0.0,87,0.00,,,0.00,VWS V14.01,2013-10-28 07:08:00,
2013-10-28 02:13:00,28.6,25.0,30.08,SSW,210,0.0,0.0,86,0.00,,,0.00,VWS V14.01,2013-10-28 07:13:00,
2013-10-28 02:15:00,30.0,25.5,30.08,SSW,210,0.0,0.0,83,0.00,,,0.00,VWS V14.01,2013-10-28 07:15:00,
2013-10-28 02:18:00,28.3,24.7,30.08,SSW,210,0.0,0.0,86,0.00,,,0.00,VWS V14.01,2013-10-28 07:18:00,
2013-10-28 02:23:00,28.3,25.2,30.08,SSW,210,1.0,1.0,88,0.00,,,0.00,VWS V14.01,2013-10-28 07:23:00,
2013-10-28 02:28:00,28.7,25.9,30.08,SSW,210,0.0,1.0,89,0.00,,,0.00,VWS V14.01,2013-10-28 07:28:00,
2013-10-28 02:30:00,29.9,25.7,30.08,SSW,210,0.0,0.0,84,0.00,,,0.00,VWS V14.01,2013-10-28 07:30:00,
2013-10-28 02:33:00,29.0,25.9,30.08,SSW,210,0.0,0.0,88,0.00,,,0.00,VWS V14.01,2013-10-28 07:33:00,
2013-10-28 02:38:00,29.2,25.8,30.08,SSW,210,0.0,1.0,87,0.00,,,0.00,VWS V14.01,2013-10-28 07:38:00,
2013-10-28 02:43:00,29.2,26.1,30.09,SSW,210,0.0,1.0,88,0.00,,,0.00,VWS V14.01,2013-10-28 07:43:00,
2013-10-28 02:45:00,29.3,25.1,30.08,SSW,210,0.0,0.0,84,0.00,,,0.00,VWS V14.01,2013-10-28 07:45:00,
2013-10-28 02:48:00,29.3,26.2,30.09,SSW,210,0.0,0.0,88,0.00,,,0.00,VWS V14.01,2013-10-28 07:48:00,
2013-10-28 02:53:00,29.2,25.8,30.09,SSW,210,0.0,0.0,87,0.00,,,0.00,VWS V14.01,2013-10-28 07:53:00,
2013-10-28 02:58:00,29.1,25.7,30.09,SSW,210,0.0,0.0,87,0.00,,,0.00,VWS V14.01,2013-10-28 07:58:00,
2013-10-28 03:00:00,28.5,25.1,30.08,SSW,210,0.0,1.0,87,0.00,,,0.00,VWS V14.01,2013-10-28 08:00:00,
2013-10-28 03:03:00,29.0,25.6,30.09,SSW,210,0.0,0.0,87,0.00,,,0.00,VWS V14.01,2013-10-28 08:03:00,
2013-10-28 03:08:00,28.9,25.5,30.09,SSW,210,0.0,0.0,87,0.00,,,0.00,VWS V14.01,2013-10-28 08:08:00,
2013-10-28 03:13:00,28.9,25.8,30.09,SSW,210,0.0,0.0,88,0.00,,,0.00,VWS V14.01,2013-10-28 08:13:00,
2013-10-28 03:15:00,28.4,24.8,30.08,SSW,210,0.0,1.0,86,0.00,,,0.00,VWS V14.01,2013-10-28 08:15:00,
2013-10-28 03:18:00,28.8,25.4,30.09,SSW,210,0.0,1.0,87,0.00,,,0.00,VWS V14.01,2013-10-28 08:18:00,
2013-10-28 03:23:00,28.7,25.6,30.09,SSW,210,0.0,1.0,88,0.00,,,0.00,VWS V14.01,2013-10-28 08:23:00,
2013-10-28 03:28:00,28.6,25.5,30.09,SSW,210,0.0,1.0,88,0.00,,,0.00,VWS V14.01,2013-10-28 08:28:00,
2013-10-28 03:30:00,28.9,25.8,30.09,SSW,210,0.0,1.0,88,0.00,,,0.00,VWS V14.01,2013-10-28 08:30:00,
2013-10-28 03:33:00,28.4,25.3,30.09,South,182,0.0,1.0,88,0.00,,,0.00,VWS V14.01,2013-10-28 08:33:00,
2013-10-28 03:38:00,28.2,24.8,30.09,South,182,0.0,1.0,87,0.00,,,0.00,VWS V14.01,2013-10-28 08:38:00,
2013-10-28 03:43:00,28.1,24.7,30.09,South,182,0.0,1.0,87,0.00,,,0.00,VWS V14.01,2013-10-28 08:43:00,
2013-10-28 03:45:00,29.2,26.1,30.09,SSW,210,0.0,1.0,88,0.00,,,0.00,VWS V14.01,2013-10-28 08:45:00,
2013-10-28 03:48:00,27.8,24.4,30.10,South,182,0.0,0.0,87,0.00,,,0.00,VWS V14.01,2013-10-28 08:48:00,
2013-10-28 03:53:00,27.5,24.1,30.10,South,182,0.0,0.0,87,0.00,,,0.00,VWS V14.01,2013-10-28 08:53:00,
2013-10-28 03:58:00,27.4,24.3,30.10,South,182,0.0,0.0,88,0.00,,,0.00,VWS V14.01,2013-10-28 08:58:00,
2013-10-28 04:00:00,29.0,25.6,30.09,SSW,210,0.0,0.0,87,0.00,,,0.00,VWS V14.01,2013-10-28 09:00:00,
2013-10-28 04:04:00,27.4,24.6,30.10,South,182,0.0,0.0,89,0.00,,,0.00,VWS V14.01,2013-10-28 09:04:00,
2013-10-28 04:09:00,27.4,24.6,30.10,South,182,0.0,0.0,89,0.00,,,0.00,VWS V14.01,2013-10-28 09:09:00,
2013-10-28 04:14:00,27.3,24.5,30.10,South,182,0.0,0.0,89,0.00,,,0.00,VWS V14.01,2013-10-28 09:14:00,
2013-10-28 04:15:00,28.9,25.5,30.09,SSW,210,0.0,1.0,87,0.00,,,0.00,VWS V14.01,2013-10-28 09:15:00,
2013-10-28 04:19:00,27.2,24.4,30.10,South,182,0.0,0.0,89,0.00,,,0.00,VWS V14.01,2013-10-28 09:19:00,
2013-10-28 04:24:00,27.2,24.4,30.10,South,182,0.0,0.0,89,0.00,,,0.00,VWS V14.01,2013-10-28 09:24:00,
2013-10-28 04:29:00,27.1,24.3,30.10,South,182,0.0,0.0,89,0.00,,,0.00,VWS V14.01,2013-10-28 09:29:00,
2013-10-28 04:30:00,28.5,25.4,30.09,SSW,210,1.0,1.0,88,0.00,,,0.00,VWS V14.01,2013-10-28 09:30:00,
2013-10-28 04:34:00,27.0,24.2,30.10,South,182,0.0,0.0,89,0.00,,,0.00,VWS V14.01,2013-10-28 09:34:00,
2013-10-28 04:39:00,27.0,24.2,30.10,South,182,0.0,0.0,89,0.00,,,0.00,VWS V14.01,2013-10-28 09:39:00,
2013-10-28 04:44:00,27.1,24.6,30.11,South,182,0.0,0.0,90,0.00,,,0.00,VWS V14.01,2013-10-28 09:44:00,
2013-10-28 04:45:00,28.0,24.6,30.09,South,182,0.0,1.0,87,0.00,,,0.00,VWS V14.01,2013-10-28 09:45:00,
2013-10-28 04:49:00,27.2,24.7,30.11,South,182,0.0,0.0,90,0.00,,,0.00,VWS V14.01,2013-10-28 09:49:00,
2013-10-28 04:54:00,27.2,24.7,30.11,South,182,0.0,0.0,90,0.00,,,0.00,VWS V14.01,2013-10-28 09:54:00,
2013-10-28 04:59:00,27.3,24.5,30.11,South,182,0.0,0.0,89,0.00,,,0.00,VWS V14.01,2013-10-28 09:59:00,
2013-10-28 05:00:00,27.4,24.3,30.10,South,182,0.0,0.0,88,0.00,,,0.00,VWS V14.01,2013-10-28 10:00:00,
2013-10-28 05:04:00,27.3,24.5,30.12,South,182,0.0,0.0,89,0.00,,,0.00,VWS V14.01,2013-10-28 10:04:00,
2013-10-28 05:09:00,27.2,24.4,30.12,South,182,0.0,0.0,89,0.00,,,0.00,VWS V14.01,2013-10-28 10:09:00,
2013-10-28 05:14:00,27.2,24.4,30.12,South,182,0.0,0.0,89,0.00,,,0.00,VWS V14.01,2013-10-28 10:14:00,
2013-10-28 05:15:00,27.2,24.4,30.10,South,182,0.0,0.0,89,0.00,,,0.00,VWS V14.01,2013-10-28 10:15:00,
2013-10-28 05:19:00,27.1,24.3,30.12,South,182,0.0,0.0,89,0.00,,,0.00,VWS V14.01,2013-10-28 10:19:00,
2013-10-28 05:24:00,26.9,24.1,30.13,South,182,0.0,0.0,89,0.00,,,0.00,VWS V14.01,2013-10-28 10:24:00,
2013-10-28 05:29:00,26.9,24.1,30.13,South,182,0.0,0.0,89,0.00,,,0.00,VWS V14.01,2013-10-28 10:29:00,
2013-10-28 05:30:00,27.1,24.3,30.10,South,182,0.0,0.0,89,0.00,,,0.00,VWS V14.01,2013-10-28 10:30:00,
2013-10-28 05:34:00,27.0,24.5,30.13,South,182,0.0,0.0,90,0.00,,,0.00,VWS V14.01,2013-10-28 10:34:00,
2013-10-28 05:39:00,27.0,24.2,30.13,South,182,0.0,0.0,89,0.00,,,0.00,VWS V14.01,2013-10-28 10:39:00,
2013-10-28 05:44:00,26.8,24.0,30.14,South,182,0.0,0.0,89,0.00,,,0.00,VWS V14.01,2013-10-28 10:44:00,
2013-10-28 05:45:00,27.1,24.6,30.11,South,182,0.0,0.0,90,0.00,,,0.00,VWS V14.01,2013-10-28 10:45:00,
2013-10-28 05:49:00,26.7,23.9,30.14,South,182,0.0,0.0,89,0.00,,,0.00,VWS V14.01,2013-10-28 10:49:00,
2013-10-28 05:54:00,26.7,24.2,30.14,South,182,0.0,0.0,90,0.00,,,0.00,VWS V14.01,2013-10-28 10:54:00,
2013-10-28 05:59:00,26.8,24.3,30.14,South,182,0.0,0.0,90,0.00,,,0.00,VWS V14.01,2013-10-28 10:59:00,
2013-10-28 06:00:00,27.3,24.5,30.12,South,182,0.0,0.0,89,0.00,,,0.00,VWS V14.01,2013-10-28 11:00:00,
2013-10-28 06:04:00,26.8,24.3,30.14,South,182,0.0,0.0,90,0.00,,,0.00,VWS V14.01,2013-10-28 11:04:00,
2013-10-28 06:09:00,26.7,23.9,30.14,South,182,0.0,0.0,89,0.00,,,0.00,VWS V14.01,2013-10-28 11:09:00,
2013-10-28 06:14:00,26.8,24.5,30.14,South,182,0.0,0.0,91,0.00,,,0.00,VWS V14.01,2013-10-28 11:14:00,
2013-10-28 06:15:00,27.2,24.4,30.12,South,182,0.0,0.0,89,0.00,,,0.00,VWS V14.01,2013-10-28 11:15:00,
2013-10-28 06:19:00,27.2,24.9,30.14,South,182,0.0,0.0,91,0.00,,,0.00,VWS V14.01,2013-10-28 11:19:00,
2013-10-28 06:25:00,27.6,25.1,30.15,South,182,0.0,0.0,90,0.00,,,0.00,VWS V14.01,2013-10-28 11:25:00,
2013-10-28 06:30:00,27.7,24.9,30.14,South,182,0.0,0.0,89,0.00,,,0.00,VWS V14.01,2013-10-28 11:30:00,
2013-10-28 06:35:00,27.6,24.5,30.15,South,182,0.0,0.0,88,0.00,,,0.00,VWS V14.01,2013-10-28 11:35:00,
2013-10-28 06:40:00,27.7,24.9,30.15,South,182,0.0,0.0,89,0.00,,,0.00,VWS V14.01,2013-10-28 11:40:00,
2013-10-28 06:45:00,27.9,25.1,30.15,South,182,0.0,0.0,89,0.00,,,0.00,VWS V14.01,2013-10-28 11:45:00,
2013-10-28 06:50:00,27.8,24.4,30.15,South,182,0.0,1.0,87,0.00,,,0.00,VWS V14.01,2013-10-28 11:50:00,
2013-10-28 06:55:00,27.4,24.0,30.16,South,182,0.0,1.0,87,0.00,,,0.00,VWS V14.01,2013-10-28 11:55:00,
2013-10-28 07:00:00,27.0,23.6,30.16,South,182,0.0,1.0,87,0.00,,,0.00,VWS V14.01,2013-10-28 12:00:00,
2013-10-28 07:05:00,26.7,23.9,30.16,South,182,0.0,0.0,89,0.00,,,0.00,VWS V14.01,2013-10-28 12:05:00,
2013-10-28 07:10:00,26.8,24.3,30.16,South,182,0.0,0.0,90,0.00,,,0.00,VWS V14.01,2013-10-28 12:10:00,
2013-10-28 07:15:00,27.1,24.8,30.16,South,182,0.0,0.0,91,0.00,,,0.00,VWS V14.01,2013-10-28 12:15:00,
2013-10-28 07:20:00,27.2,24.4,30.16,South,182,0.0,0.0,89,0.00,,,0.00,VWS V14.01,2013-10-28 12:20:00,
2013-10-28 07:25:00,27.2,24.7,30.17,South,182,0.0,0.0,90,0.00,,,0.00,VWS V14.01,2013-10-28 12:25:00,
2013-10-28 07:30:00,27.3,24.5,30.17,South,182,0.0,0.0,89,0.00,,,0.00,VWS V14.01,2013-10-28 12:30:00,
2013-10-28 07:35:00,27.4,24.6,30.17,South,182,0.0,0.0,89,0.00,,,0.00,VWS V14.01,2013-10-28 12:35:00,
2013-10-28 07:40:00,27.6,25.1,30.17,South,182,0.0,0.0,90,0.00,,,0.00,VWS V14.01,2013-10-28 12:40:00,
2013-10-28 07:45:00,28.0,25.2,30.18,South,182,0.0,0.0,89,0.00,,,0.00,VWS V14.01,2013-10-28 12:45:00,
2013-10-28 07:50:00,28.4,25.3,30.18,South,182,0.0,0.0,88,0.00,,,0.00,VWS V14.01,2013-10-28 12:50:00,
2013-10-28 07:55:00,28.8,25.7,30.18,South,182,0.0,0.0,88,0.00,,,0.00,VWS V14.01,2013-10-28 12:55:00,
2013-10-28 08:00:00,29.5,26.7,30.18,South,182,0.0,0.0,89,0.00,,,0.00,VWS V14.01,2013-10-28 13:00:00,
2013-10-28 08:05:00,30.4,27.5,30.19,South,182,0.0,0.0,89,0.00,,,0.00,VWS V14.01,2013-10-28 13:05:00,
2013-10-28 08:10:00,31.4,28.5,30.19,South,182,0.0,0.0,89,0.00,,,0.00,VWS V14.01,2013-10-28 13:10:00,
2013-10-28 08:15:00,32.2,29.3,30.19,South,182,0.0,1.0,89,0.00,,,0.00,VWS V14.01,2013-10-28 13:15:00,
2013-10-28 08:20:00,33.0,30.1,30.19,South,182,0.0,0.0,89,0.00,,,0.00,VWS V14.01,2013-10-28 13:20:00,
2013-10-28 08:25:00,34.1,30.9,30.19,South,182,1.0,1.0,88,0.00,,,0.00,VWS V14.01,2013-10-28 13:25:00,
2013-10-28 08:30:00,35.2,31.7,30.19,South,182,0.0,1.0,87,0.00,,,0.00,VWS V14.01,2013-10-28 13:30:00,
2013-10-28 08:35:00,36.0,32.5,30.19,South,182,0.0,0.0,87,0.00,,,0.00,VWS V14.01,2013-10-28 13:35:00,
2013-10-28 08:40:00,37.1,33.3,30.20,South,182,0.0,1.0,86,0.00,,,0.00,VWS V14.01,2013-10-28 13:40:00,
2013-10-28 08:45:00,38.3,34.2,30.20,South,182,1.0,1.0,85,0.00,,,0.00,VWS V14.01,2013-10-28 13:45:00,
2013-10-28 08:50:00,39.5,34.8,30.20,South,182,2.0,2.0,83,0.00,,,0.00,VWS V14.01,2013-10-28 13:50:00,
2013-10-28 08:55:00,40.6,35.2,30.20,South,182,1.0,2.0,81,0.00,,,0.00,VWS V14.01,2013-10-28 13:55:00,
2013-10-28 09:00:00,41.7,36.0,30.20,SSE,148,3.0,3.0,80,0.00,,,0.00,VWS V14.01,2013-10-28 14:00:00,
2013-10-28 09:05:00,42.7,36.0,30.21,NE,47,4.0,4.0,77,0.00,,,0.00,VWS V14.01,2013-10-28 14:05:00,
2013-10-28 09:10:00,43.2,36.5,30.22,NE,46,0.0,6.0,77,0.00,,,0.00,VWS V14.01,2013-10-28 14:10:00,
2013-10-28 09:15:00,44.3,36.2,30.22,NE,46,2.0,6.0,73,0.00,,,0.00,VWS V14.01,2013-10-28 14:15:00,
2013-10-28 09:20:00,45.0,36.9,30.22,NNW,348,5.0,9.0,73,0.00,,,0.00,VWS V14.01,2013-10-28 14:20:00,
2013-10-28 09:26:00,45.4,36.2,30.23,NNE,28,6.0,9.0,70,0.00,,,0.00,VWS V14.01,2013-10-28 14:26:00,
2013-10-28 09:30:00,35.2,31.7,30.19,South,182,0.0,1.0,87,0.00,,,0.00,VWS V14.01,2013-10-28 14:30:00,
2013-10-28 09:31:00,45.1,35.5,30.23,NNE,27,7.0,9.0,69,0.00,,,0.00,VWS V14.01,2013-10-28 14:31:00,
2013-10-28 09:36:00,45.2,35.3,30.23,NE,44,7.0,7.0,68,0.00,,,0.00,VWS V14.01,2013-10-28 14:36:00,
2013-10-28 09:41:00,45.7,35.4,30.23,NE,51,2.0,7.0,67,0.00,,,0.00,VWS V14.01,2013-10-28 14:41:00,
2013-10-28 09:45:00,38.3,34.2,30.20,South,182,1.0,1.0,85,0.00,,,0.00,VWS V14.01,2013-10-28 14:45:00,
2013-10-28 09:46:00,46.2,35.5,30.23,East,94,2.0,7.0,66,0.00,,,0.00,VWS V14.01,2013-10-28 14:46:00,
2013-10-28 09:51:00,46.6,35.1,30.23,NE,43,1.0,5.0,64,0.00,,,0.00,VWS V14.01,2013-10-28 14:51:00,
2013-10-28 09:56:00,47.0,35.9,30.23,NE,40,4.0,5.0,65,0.00,,,0.00,VWS V14.01,2013-10-28 14:56:00,
2013-10-28 10:00:00,41.7,36.0,30.20,SSE,148,3.0,3.0,80,0.00,,,0.00,VWS V14.01,2013-10-28 15:00:00,
2013-10-28 10:01:00,47.3,35.4,30.23,East,87,1.0,6.0,63,0.00,,,0.00,VWS V14.01,2013-10-28 15:01:00,
2013-10-28 10:06:00,48.1,36.5,30.23,East,88,6.0,6.0,64,0.00,,,0.00,VWS V14.01,2013-10-28 15:06:00,
2013-10-28 10:11:00,48.5,36.5,30.23,ENE,59,2.0,6.0,63,0.00,,,0.00,VWS V14.01,2013-10-28 15:11:00,
2013-10-28 10:15:00,44.3,36.2,30.22,NE,46,2.0,6.0,73,0.00,,,0.00,VWS V14.01,2013-10-28 15:15:00,
2013-10-28 10:16:00,48.8,36.4,30.23,NE,53,3.0,3.0,62,0.00,,,0.00,VWS V14.01,2013-10-28 15:16:00,
2013-10-28 10:21:00,49.1,35.0,30.23,ENE,57,3.0,5.0,58,0.00,,,0.00,VWS V14.01,2013-10-28 15:21:00,
2013-10-28 10:26:00,49.3,35.6,30.23,ENE,63,2.0,5.0,59,0.00,,,0.00,VWS V14.01,2013-10-28 15:26:00,
2013-10-28 10:30:00,45.1,35.5,30.23,NNE,27,7.0,9.0,69,0.00,,,0.00,VWS V14.01,2013-10-28 15:30:00,
2013-10-28 10:31:00,49.4,35.7,30.23,NE,55,1.0,4.0,59,0.00,,,0.00,VWS V14.01,2013-10-28 15:31:00,
2013-10-28 10:36:00,50.1,36.3,30.23,ENE,59,4.0,5.0,59,0.00,,,0.00,VWS V14.01,2013-10-28 15:36:00,
2013-10-28 10:41:00,50.6,36.4,30.23,NE,48,1.0,5.0,58,0.00,,,0.00,VWS V14.01,2013-10-28 15:41:00,
2013-10-28 10:45:00,46.2,35.5,30.23,East,94,2.0,7.0,66,0.00,,,0.00,VWS V14.01,2013-10-28 15:45:00,
2013-10-28 10:46:00,50.9,36.7,30.24,NE,47,4.0,4.0,58,0.00,,,0.00,VWS V14.01,2013-10-28 15:46:00,
2013-10-28 10:51:00,51.2,37.4,30.24,NE,55,2.0,5.0,59,0.00,,,0.00,VWS V14.01,2013-10-28 15:51:00,
2013-10-28 10:56:00,51.7,37.4,30.24,ENE,64,3.0,5.0,58,0.00,,,0.00,VWS V14.01,2013-10-28 15:56:00,
2013-10-28 11:00:00,47.3,35.4,30.23,East,87,1.0,6.0,63,0.00,,,0.00,VWS V14.01,2013-10-28 16:00:00,
2013-10-28 11:01:00,52.1,36.9,30.24,East,80,3.0,4.0,56,0.00,,,0.00,VWS V14.01,2013-10-28 16:01:00,
2013-10-28 11:06:00,52.9,36.7,30.24,East,84,2.0,5.0,54,0.00,,,0.00,VWS V14.01,2013-10-28 16:06:00,
2013-10-28 11:11:00,53.2,36.5,30.24,NNE,13,3.0,5.0,53,0.00,,,0.00,VWS V14.01,2013-10-28 16:11:00,
2013-10-28 11:15:00,48.7,36.7,30.23,NE,56,3.0,6.0,63,0.00,,,0.00,VWS V14.01,2013-10-28 16:15:00,
2013-10-28 11:16:00,53.5,37.3,30.24,NE,56,1.0,2.0,54,0.00,,,0.00,VWS V14.01,2013-10-28 16:16:00,
2013-10-28 11:21:00,53.8,36.1,30.24,ENE,57,1.0,4.0,51,0.00,,,0.00,VWS V14.01,2013-10-28 16:21:00,
2013-10-28 11:26:00,54.3,36.1,30.24,ESE,107,2.0,4.0,50,0.00,,,0.00,VWS V14.01,2013-10-28 16:26:00,
2013-10-28 11:30:00,49.4,35.7,30.23,NE,47,4.0,5.0,59,0.00,,,0.00,VWS V14.01,2013-10-28 16:30:00,
2013-10-28 11:31:00,54.8,36.5,30.24,NE,45,0.0,1.0,50,0.00,,,0.00,VWS V14.01,2013-10-28 16:31:00,
2013-10-28 11:36:00,55.1,36.3,30.24,ENE,73,1.0,3.0,49,0.00,,,0.00,VWS V14.01,2013-10-28 16:36:00,
2013-10-28 11:41:00,55.5,37.2,30.24,East,91,3.0,4.0,50,0.00,,,0.00,VWS V14.01,2013-10-28 16:41:00,
2013-10-28 11:45:00,50.9,36.2,30.24,NNE,18,4.0,5.0,57,0.00,,,0.00,VWS V14.01,2013-10-28 16:45:00,
2013-10-28 11:46:00,55.9,37.0,30.24,ENE,59,0.0,2.0,49,0.00,,,0.00,VWS V14.01,2013-10-28 16:46:00,
2013-10-28 11:51:00,56.6,36.6,30.24,ENE,71,2.0,5.0,47,0.00,,,0.00,VWS V14.01,2013-10-28 16:51:00,
2013-10-28 11:56:00,57.2,37.2,30.24,NE,51,4.0,5.0,47,0.00,,,0.00,VWS V14.01,2013-10-28 16:56:00,
2013-10-28 12:00:00,51.9,36.7,30.24,NE,46,4.0,6.0,56,0.00,,,0.00,VWS V14.01,2013-10-28 17:00:00,
2013-10-28 12:01:00,56.8,35.1,30.24,ENE,78,2.0,3.0,44,0.00,,,0.00,VWS V14.01,2013-10-28 17:01:00,
2013-10-28 12:15:00,53.4,37.2,30.24,East,95,2.0,5.0,54,0.00,,,0.00,VWS V14.01,2013-10-28 17:15:00,
2013-10-28 12:23:00,57.5,34.0,30.24,ENE,60,0.0,4.0,41,0.00,,,0.00,VWS V14.01,2013-10-28 17:23:00,
2013-10-28 12:28:00,58.1,33.9,30.23,ENE,67,3.0,4.0,40,0.00,,,0.00,VWS V14.01,2013-10-28 17:28:00,
2013-10-28 12:30:00,54.7,37.4,30.24,NE,34,1.0,4.0,52,0.00,,,0.00,VWS V14.01,2013-10-28 17:30:00,
2013-10-28 12:33:00,58.4,32.2,30.23,SE,138,4.0,4.0,37,0.00,,,0.00,VWS V14.01,2013-10-28 17:33:00,
2013-10-28 12:38:00,58.2,32.7,30.23,North,5,1.0,4.0,38,0.00,,,0.00,VWS V14.01,2013-10-28 17:38:00,
2013-10-28 12:43:00,58.2,34.0,30.23,NNE,28,0.0,5.0,40,0.00,,,0.00,VWS V14.01,2013-10-28 17:43:00,
2013-10-28 12:45:00,55.8,37.5,30.24,ENE,59,2.0,6.0,50,0.00,,,0.00,VWS V14.01,2013-10-28 17:45:00,
2013-10-28 12:48:00,58.5,33.7,30.23,South,178,0.0,2.0,39,0.00,,,0.00,VWS V14.01,2013-10-28 17:48:00,
2013-10-28 12:53:00,59.0,34.1,30.23,ENE,72,1.0,6.0,39,0.00,,,0.00,VWS V14.01,2013-10-28 17:53:00,
2013-10-28 12:58:00,59.1,34.8,30.23,North,355,3.0,7.0,40,0.00,,,0.00,VWS V14.01,2013-10-28 17:58:00,
2013-10-28 13:00:00,56.9,35.8,30.24,NE,42,1.0,5.0,45,0.00,,,0.00,VWS V14.01,2013-10-28 18:00:00,
2013-10-28 13:03:00,59.0,33.5,30.22,ENE,57,2.0,2.0,38,0.00,,,0.00,VWS V14.01,2013-10-28 18:03:00,
2013-10-28 13:08:00,59.5,33.9,30.22,East,88,3.0,4.0,38,0.00,,,0.00,VWS V14.01,2013-10-28 18:08:00,
2013-10-28 13:13:00,59.7,32.7,30.22,SSE,151,0.0,5.0,36,0.00,,,0.00,VWS V14.01,2013-10-28 18:13:00,
2013-10-28 13:15:00,57.0,35.3,30.24,NE,38,0.0,4.0,44,0.00,,,0.00,VWS V14.01,2013-10-28 18:15:00,
2013-10-28 13:18:00,59.7,34.1,30.22,ENE,67,1.0,3.0,38,0.00,,,0.00,VWS V14.01,2013-10-28 18:18:00,
2013-10-28 13:23:00,59.9,34.2,30.22,ENE,70,4.0,4.0,38,0.00,,,0.00,VWS V14.01,2013-10-28 18:23:00,
2013-10-28 13:28:00,59.9,34.2,30.21,East,92,0.0,4.0,38,0.00,,,0.00,VWS V14.01,2013-10-28 18:28:00,
2013-10-28 13:30:00,58.4,32.2,30.23,ENE,78,0.0,4.0,37,0.00,,,0.00,VWS V14.01,2013-10-28 18:30:00,
2013-10-28 13:33:00,60.2,32.5,30.21,ESE,117,3.0,8.0,35,0.00,,,0.00,VWS V14.01,2013-10-28 18:33:00,
2013-10-28 13:39:00,60.1,33.1,30.21,SE,131,1.0,8.0,36,0.00,,,0.00,VWS V14.01,2013-10-28 18:39:00,
2013-10-28 13:44:00,60.2,34.5,30.21,East,91,2.0,8.0,38,0.00,,,0.00,VWS V14.01,2013-10-28 18:44:00,
2013-10-28 13:45:00,58.3,32.8,30.23,South,189,0.0,5.0,38,0.00,,,0.00,VWS V14.01,2013-10-28 18:45:00,
2013-10-28 13:49:00,60.5,34.1,30.21,NNE,25,6.0,6.0,37,0.00,,,0.00,VWS V14.01,2013-10-28 18:49:00,
2013-10-28 13:54:00,60.5,33.4,30.21,NE,53,3.0,7.0,36,0.00,,,0.00,VWS V14.01,2013-10-28 18:54:00,
2013-10-28 13:59:00,60.2,33.8,30.20,NNE,31,2.0,7.0,37,0.00,,,0.00,VWS V14.01,2013-10-28 18:59:00,
2013-10-28 14:00:00,59.0,33.5,30.23,NNW,338,0.0,7.0,38,0.00,,,0.00,VWS V14.01,2013-10-28 19:00:00,
2013-10-28 14:04:00,60.4,34.0,30.20,ENE,74,7.0,7.0,37,0.00,,,0.00,VWS V14.01,2013-10-28 19:04:00,
2013-10-28 14:09:00,61.1,34.0,30.20,ESE,120,8.0,8.0,36,0.00,,,0.00,VWS V14.01,2013-10-28 19:09:00,
2013-10-28 14:14:00,61.3,34.1,30.20,East,94,2.0,8.0,36,0.00,,,0.00,VWS V14.01,2013-10-28 19:14:00,
2013-10-28 14:15:00,59.7,34.1,30.22,SSE,152,0.0,5.0,38,0.00,,,0.00,VWS V14.01,2013-10-28 19:15:00,
2013-10-28 14:19:00,61.6,35.1,30.20,East,98,1.0,8.0,37,0.00,,,0.00,VWS V14.01,2013-10-28 19:19:00,
2013-10-28 14:24:00,61.6,34.4,30.20,ENE,74,4.0,8.0,36,0.00,,,0.00,VWS V14.01,2013-10-28 19:24:00,
2013-10-28 14:29:00,61.5,33.6,30.20,North,355,4.0,10.0,35,0.00,,,0.00,VWS V14.01,2013-10-28 19:29:00,
2013-10-28 14:30:00,60.1,33.1,30.21,ESE,109,7.0,7.0,36,0.00,,,0.00,VWS V14.01,2013-10-28 19:30:00,
2013-10-28 14:34:00,61.4,33.5,30.20,East,89,5.0,5.0,35,0.00,,,0.00,VWS V14.01,2013-10-28 19:34:00,
2013-10-28 14:39:00,61.9,34.0,30.20,ENE,64,3.0,7.0,35,0.00,,,0.00,VWS V14.01,2013-10-28 19:39:00,
2013-10-28 14:44:00,61.9,34.0,30.20,ENE,63,1.0,7.0,35,0.00,,,0.00,VWS V14.01,2013-10-28 19:44:00,
2013-10-28 14:45:00,60.2,33.8,30.21,NNE,29,4.0,8.0,37,0.00,,,0.00,VWS V14.01,2013-10-28 19:45:00,
2013-10-28 14:49:00,61.8,33.2,30.20,ESE,116,4.0,7.0,34,0.00,,,0.00,VWS V14.01,2013-10-28 19:49:00,
2013-10-28 14:54:00,62.0,34.1,30.20,NE,56,3.0,7.0,35,0.00,,,0.00,VWS V14.01,2013-10-28 19:54:00,
2013-10-28 14:59:00,61.8,33.2,30.20,ESE,107,0.0,7.0,34,0.00,,,0.00,VWS V14.01,2013-10-28 19:59:00,
2013-10-28 15:00:00,60.2,34.5,30.20,NNE,16,2.0,7.0,38,0.00,,,0.00,VWS V14.01,2013-10-28 20:00:00,
2013-10-28 15:04:00,61.7,33.8,30.20,East,94,2.0,5.0,35,0.00,,,0.00,VWS V14.01,2013-10-28 20:04:00,
2013-10-28 15:09:00,61.6,33.0,30.20,SE,142,3.0,7.0,34,0.00,,,0.00,VWS V14.01,2013-10-28 20:09:00,
2013-10-28 15:15:00,61.7,33.1,30.20,SE,125,0.0,7.0,34,0.00,,,0.00,VWS V14.01,2013-10-28 20:15:00,
2013-10-28 15:20:00,61.7,33.1,30.20,ENE,65,2.0,7.0,34,0.00,,,0.00,VWS V14.01,2013-10-28 20:20:00,
2013-10-28 15:25:00,61.7,33.8,30.20,East,88,2.0,7.0,35,0.00,,,0.00,VWS V14.01,2013-10-28 20:25:00,
2013-10-28 15:30:00,61.6,33.0,30.20,ENE,57,0.0,7.0,34,0.00,,,0.00,VWS V14.01,2013-10-28 20:30:00,
2013-10-28 15:35:00,61.5,33.6,30.20,East,89,3.0,5.0,35,0.00,,,0.00,VWS V14.01,2013-10-28 20:35:00,
2013-10-28 15:40:00,61.6,33.7,30.20,East,98,2.0,5.0,35,0.00,,,0.00,VWS V14.01,2013-10-28 20:40:00,
2013-10-28 15:45:00,61.5,33.6,30.20,NE,56,2.0,5.0,35,0.00,,,0.00,VWS V14.01,2013-10-28 20:45:00,
2013-10-28 15:50:00,61.4,32.8,30.21,SE,128,3.0,6.0,34,0.00,,,0.00,VWS V14.01,2013-10-28 20:50:00,
2013-10-28 15:55:00,61.4,33.5,30.21,ESE,117,2.0,6.0,35,0.00,,,0.00,VWS V14.01,2013-10-28 20:55:00,
2013-10-28 16:00:00,61.5,33.6,30.21,ESE,115,4.0,6.0,35,0.00,,,0.00,VWS V14.01,2013-10-28 21:00:00,
2013-10-28 16:05:00,61.3,32.7,30.21,East,80,1.0,6.0,34,0.00,,,0.00,VWS V14.01,2013-10-28 21:05:00,
2013-10-28 16:10:00,61.1,32.5,30.21,ESE,111,3.0,6.0,34,0.00,,,0.00,VWS V14.01,2013-10-28 21:10:00,
2013-10-28 16:15:00,60.9,33.1,30.21,East,88,1.0,6.0,35,0.00,,,0.00,VWS V14.01,2013-10-28 21:15:00,
2013-10-28 16:20:00,60.8,33.7,30.22,ENE,61,4.0,4.0,36,0.00,,,0.00,VWS V14.01,2013-10-28 21:20:00,
2013-10-28 16:25:00,60.7,32.9,30.21,SE,130,4.0,5.0,35,0.00,,,0.00,VWS V14.01,2013-10-28 21:25:00,
2013-10-28 16:30:00,60.8,33.0,30.21,SE,130,4.0,5.0,35,0.00,,,0.00,VWS V14.01,2013-10-28 21:30:00,
2013-10-28 16:35:00,60.7,32.9,30.21,ESE,114,2.0,4.0,35,0.00,,,0.00,VWS V14.01,2013-10-28 21:35:00,
2013-10-28 16:40:00,60.6,32.8,30.21,ESE,104,1.0,4.0,35,0.00,,,0.00,VWS V14.01,2013-10-28 21:40:00,
2013-10-28 16:45:00,60.3,33.9,30.21,ENE,69,3.0,4.0,37,0.00,,,0.00,VWS V14.01,2013-10-28 21:45:00,
2013-10-28 16:50:00,59.9,33.6,30.21,NE,53,2.0,5.0,37,0.00,,,0.00,VWS V14.01,2013-10-28 21:50:00,
2013-10-28 16:55:00,59.4,33.8,30.22,East,85,3.0,5.0,38,0.00,,,0.00,VWS V14.01,2013-10-28 21:55:00,
2013-10-28 17:00:00,58.9,33.4,30.22,East,90,1.0,5.0,38,0.00,,,0.00,VWS V14.01,2013-10-28 22:00:00,
2013-10-28 17:06:00,58.4,33.6,30.22,ENE,69,1.0,1.0,39,0.00,,,0.00,VWS V14.01,2013-10-28 22:06:00,
2013-10-28 17:11:00,58.1,33.9,30.22,ENE,69,0.0,1.0,40,0.00,,,0.00,VWS V14.01,2013-10-28 22:11:00,
2013-10-28 17:15:00,60.9,33.1,30.21,East,88,1.0,6.0,35,0.00,,,0.00,VWS V14.01,2013-10-28 22:15:00,
2013-10-28 17:16:00,57.7,34.8,30.22,ENE,69,0.0,1.0,42,0.00,,,0.00,VWS V14.01,2013-10-28 22:16:00,
2013-10-28 17:21:00,57.1,34.8,30.22,ENE,69,1.0,1.0,43,0.00,,,0.00,VWS V14.01,2013-10-28 22:21:00,
2013-10-28 17:26:00,56.4,34.8,30.22,ENE,69,0.0,1.0,44,0.00,,,0.00,VWS V14.01,2013-10-28 22:26:00,
2013-10-28 17:30:00,60.8,33.0,30.21,SE,130,4.0,5.0,35,0.00,,,0.00,VWS V14.01,2013-10-28 22:30:00,
2013-10-28 17:31:00,55.4,34.4,30.22,ENE,68,1.0,1.0,45,0.00,,,0.00,VWS V14.01,2013-10-28 22:31:00,
2013-10-28 17:36:00,54.7,34.3,30.22,ENE,69,1.0,1.0,46,0.00,,,0.00,VWS V14.01,2013-10-28 22:36:00,
2013-10-28 17:41:00,54.2,34.4,30.23,ENE,69,1.0,2.0,47,0.00,,,0.00,VWS V14.01,2013-10-28 22:41:00,
2013-10-28 17:45:00,60.3,33.9,30.21,ENE,69,3.0,4.0,37,0.00,,,0.00,VWS V14.01,2013-10-28 22:45:00,
2013-10-28 17:46:00,53.2,34.5,30.23,ENE,69,1.0,1.0,49,0.00,,,0.00,VWS V14.01,2013-10-28 22:46:00,
2013-10-28 17:51:00,52.2,34.1,30.23,ENE,66,1.0,2.0,50,0.00,,,0.00,VWS V14.01,2013-10-28 22:51:00,
2013-10-28 17:56:00,51.1,34.1,30.23,ENE,66,0.0,2.0,52,0.00,,,0.00,VWS V14.01,2013-10-28 22:56:00,
2013-10-28 18:00:00,58.9,33.4,30.22,East,90,1.0,5.0,38,0.00,,,0.00,VWS V14.01,2013-10-28 23:00:00,
2013-10-28 18:01:00,50.0,33.6,30.23,ENE,66,1.0,1.0,53,0.00,,,0.00,VWS V14.01,2013-10-28 23:01:00,
2013-10-28 18:06:00,49.2,33.7,30.23,ENE,66,0.0,1.0,55,0.00,,,0.00,VWS V14.01,2013-10-28 23:06:00,
2013-10-28 18:11:00,48.7,33.7,30.23,ENE,66,1.0,1.0,56,0.00,,,0.00,VWS V14.01,2013-10-28 23:11:00,
2013-10-28 18:15:00,57.7,34.8,30.22,ENE,69,0.0,1.0,42,0.00,,,0.00,VWS V14.01,2013-10-28 23:15:00,
2013-10-28 18:16:00,48.3,33.8,30.24,ENE,63,0.0,0.0,57,0.00,,,0.00,VWS V14.01,2013-10-28 23:16:00,
2013-10-28 18:21:00,48.1,33.6,30.24,ENE,63,1.0,1.0,57,0.00,,,0.00,VWS V14.01,2013-10-28 23:21:00,
2013-10-28 18:27:00,47.4,33.4,30.24,ENE,63,0.0,1.0,58,0.00,,,0.00,VWS V14.01,2013-10-28 23:27:00,
2013-10-28 18:30:00,55.5,34.5,30.22,ENE,69,1.0,1.0,45,0.00,,,0.00,VWS V14.01,2013-10-28 23:30:00,
2013-10-28 18:32:00,47.0,33.0,30.24,ENE,63,0.0,1.0,58,0.00,,,0.00,VWS V14.01,2013-10-28 23:32:00,
2013-10-28 18:37:00,46.3,32.8,30.24,ENE,63,0.0,1.0,59,0.00,,,0.00,VWS V14.01,2013-10-28 23:37:00,
2013-10-28 18:42:00,45.8,32.7,30.24,ENE,63,0.0,1.0,60,0.00,,,0.00,VWS V14.01,2013-10-28 23:42:00,
2013-10-28 18:45:00,53.3,34.1,30.23,ENE,69,1.0,2.0,48,0.00,,,0.00,VWS V14.01,2013-10-28 23:45:00,
2013-10-28 18:47:00,45.1,32.5,30.24,ENE,63,0.0,0.0,61,0.00,,,0.00,VWS V14.01,2013-10-28 23:47:00,
2013-10-28 18:52:00,44.8,32.6,30.25,ENE,62,0.0,2.0,62,0.00,,,0.00,VWS V14.01,2013-10-28 23:52:00,
2013-10-28 18:57:00,44.5,32.7,30.25,ENE,62,1.0,2.0,63,0.00,,,0.00,VWS V14.01,2013-10-28 23:57:00,
2013-10-28 19:00:00,50.1,33.7,30.23,ENE,66,0.0,2.0,53,0.00,,,0.00,VWS V14.01,2013-10-29 00:00:00,
2013-10-28 19:02:00,44.0,32.6,30.25,ENE,62,0.0,1.0,64,0.00,,,0.00,VWS V14.01,2013-10-29 00:02:00,
2013-10-28 19:07:00,43.5,32.5,30.25,ENE,62,1.0,2.0,65,0.00,,,0.00,VWS V14.01,2013-10-29 00:07:00,
2013-10-28 19:12:00,43.2,32.6,30.25,ENE,61,2.0,2.0,66,0.00,,,0.00,VWS V14.01,2013-10-29 00:12:00,
2013-10-28 19:15:00,48.3,33.8,30.24,ENE,63,0.0,1.0,57,0.00,,,0.00,VWS V14.01,2013-10-29 00:15:00,
2013-10-28 19:17:00,43.0,32.4,30.25,NE,56,3.0,3.0,66,0.00,,,0.00,VWS V14.01,2013-10-29 00:17:00,
2013-10-28 19:22:00,42.9,34.8,30.26,NE,55,4.0,7.0,73,0.00,,,0.00,VWS V14.01,2013-10-29 00:22:00,
2013-10-28 19:27:00,45.0,38.6,30.26,ENE,67,4.0,8.0,78,0.00,,,0.00,VWS V14.01,2013-10-29 00:27:00,
2013-10-28 19:30:00,47.2,33.2,30.24,ENE,63,1.0,1.0,58,0.00,,,0.00,VWS V14.01,2013-10-29 00:30:00,
2013-10-28 19:32:00,46.2,39.7,30.26,NE,34,6.0,6.0,78,0.00,,,0.00,VWS V14.01,2013-10-29 00:32:00,
2013-10-28 19:37:00,46.6,40.5,30.26,NE,55,5.0,9.0,79,0.00,,,0.00,VWS V14.01,2013-10-29 00:37:00,
2013-10-28 19:42:00,46.9,41.1,30.26,ENE,73,7.0,9.0,80,0.00,,,0.00,VWS V14.01,2013-10-29 00:42:00,
2013-10-28 19:45:00,45.2,32.6,30.24,ENE,63,0.0,1.0,61,0.00,,,0.00,VWS V14.01,2013-10-29 00:45:00,
2013-10-28 19:47:00,46.7,40.9,30.27,NE,55,8.0,8.0,80,0.00,,,0.00,VWS V14.01,2013-10-29 00:47:00,
2013-10-28 19:52:00,46.5,41.0,30.27,ENE,67,5.0,8.0,81,0.00,,,0.00,VWS V14.01,2013-10-29 00:52:00,
2013-10-28 19:57:00,46.4,41.2,30.27,ENE,78,8.0,8.0,82,0.00,,,0.00,VWS V14.01,2013-10-29 00:57:00,
2013-10-28 20:00:00,44.2,32.4,30.25,ENE,62,0.0,2.0,63,0.00,,,0.00,VWS V14.01,2013-10-29 01:00:00,
2013-10-28 20:02:00,46.3,41.1,30.27,ENE,63,5.0,7.0,82,0.00,,,0.00,VWS V14.01,2013-10-29 01:02:00,
2013-10-28 20:07:00,46.2,41.0,30.27,ENE,63,9.0,9.0,82,0.00,,,0.00,VWS V14.01,2013-10-29 01:07:00,
2013-10-28 20:13:00,46.0,41.1,30.27,NE,53,8.0,9.0,83,0.00,,,0.00,VWS V14.01,2013-10-29 01:13:00,
2013-10-28 20:15:00,43.1,32.5,30.25,ENE,61,1.0,2.0,66,0.00,,,0.00,VWS V14.01,2013-10-29 01:15:00,
2013-10-28 20:18:00,45.8,41.2,30.27,ENE,57,8.0,8.0,84,0.00,,,0.00,VWS V14.01,2013-10-29 01:18:00,
2013-10-28 20:23:00,45.6,41.0,30.27,ENE,72,5.0,8.0,84,0.00,,,0.00,VWS V14.01,2013-10-29 01:23:00,
2013-10-28 20:28:00,45.2,40.7,30.27,ENE,69,7.0,8.0,84,0.00,,,0.00,VWS V14.01,2013-10-29 01:28:00,
2013-10-28 20:30:00,46.0,39.9,30.26,East,80,5.0,8.0,79,0.00,,,0.00,VWS V14.01,2013-10-29 01:30:00,
2013-10-28 20:33:00,45.1,40.9,30.28,NE,45,6.0,6.0,85,0.00,,,0.00,VWS V14.01,2013-10-29 01:33:00,
2013-10-28 20:38:00,45.0,40.8,30.28,ENE,61,7.0,8.0,85,0.00,,,0.00,VWS V14.01,2013-10-29 01:38:00,
2013-10-28 20:43:00,44.9,40.7,30.28,ENE,61,5.0,8.0,85,0.00,,,0.00,VWS V14.01,2013-10-29 01:43:00,
2013-10-28 20:45:00,46.8,41.0,30.27,ENE,62,7.0,9.0,80,0.00,,,0.00,VWS V14.01,2013-10-29 01:45:00,
2013-10-28 20:48:00,44.7,40.8,30.28,NE,54,5.0,5.0,86,0.00,,,0.00,VWS V14.01,2013-10-29 01:48:00,
2013-10-28 20:53:00,44.5,40.6,30.28,NE,47,5.0,5.0,86,0.00,,,0.00,VWS V14.01,2013-10-29 01:53:00,
2013-10-28 20:58:00,44.4,40.5,30.29,ENE,63,5.0,7.0,86,0.00,,,0.00,VWS V14.01,2013-10-29 01:58:00,
2013-10-28 21:00:00,46.3,41.1,30.27,ENE,69,7.0,8.0,82,0.00,,,0.00,VWS V14.01,2013-10-29 02:00:00,
2013-10-28 21:03:00,44.3,40.7,30.29,ENE,61,4.0,7.0,87,0.00,,,0.00,VWS V14.01,2013-10-29 02:03:00,
2013-10-28 21:08:00,44.2,40.6,30.29,ENE,72,3.0,7.0,87,0.00,,,0.00,VWS V14.01,2013-10-29 02:08:00,
2013-10-28 21:13:00,44.0,40.4,30.29,NE,48,4.0,8.0,87,0.00,,,0.00,VWS V14.01,2013-10-29 02:13:00,
2013-10-28 21:15:00,45.9,41.0,30.27,ENE,61,5.0,9.0,83,0.00,,,0.00,VWS V14.01,2013-10-29 02:15:00,
2013-10-28 21:19:00,43.8,40.5,30.29,NE,56,4.0,8.0,88,0.00,,,0.00,VWS V14.01,2013-10-29 02:19:00,
2013-10-28 21:24:00,43.7,40.4,30.29,ENE,69,4.0,8.0,88,0.00,,,0.00,VWS V14.01,2013-10-29 02:24:00,
2013-10-28 21:29:00,43.5,40.2,30.29,NE,44,6.0,8.0,88,0.00,,,0.00,VWS V14.01,2013-10-29 02:29:00,
2013-10-28 21:30:00,45.2,41.0,30.27,NE,40,6.0,8.0,85,0.00,,,0.00,VWS V14.01,2013-10-29 02:30:00,
2013-10-28 21:34:00,43.2,40.2,30.29,ENE,61,5.0,7.0,89,0.00,,,0.00,VWS V14.01,2013-10-29 02:34:00,
2013-10-28 21:39:00,43.1,40.1,30.29,ENE,58,4.0,8.0,89,0.00,,,0.00,VWS V14.01,2013-10-29 02:39:00,
2013-10-28 21:44:00,43.1,40.4,30.30,ENE,57,2.0,8.0,90,0.00,,,0.00,VWS V14.01,2013-10-29 02:44:00,
2013-10-28 21:45:00,44.7,40.8,30.28,NE,39,4.0,8.0,86,0.00,,,0.00,VWS V14.01,2013-10-29 02:45:00,
2013-10-28 21:49:00,43.1,40.1,30.30,ENE,61,5.0,8.0,89,0.00,,,0.00,VWS V14.01,2013-10-29 02:49:00,
2013-10-28 21:54:00,43.0,40.3,30.30,ENE,59,5.0,8.0,90,0.00,,,0.00,VWS V14.01,2013-10-29 02:54:00,
2013-10-28 21:59:00,42.9,40.2,30.30,NE,38,6.0,8.0,90,0.00,,,0.00,VWS V14.01,2013-10-29 02:59:00,
2013-10-28 22:00:00,44.4,40.8,30.29,ENE,65,5.0,9.0,87,0.00,,,0.00,VWS V14.01,2013-10-29 03:00:00,
2013-10-28 22:04:00,42.9,40.2,30.30,ENE,58,4.0,7.0,90,0.00,,,0.00,VWS V14.01,2013-10-29 03:04:00,
2013-10-28 22:09:00,42.9,40.2,30.30,NE,40,6.0,7.0,90,0.00,,,0.00,VWS V14.01,2013-10-29 03:09:00,
2013-10-28 22:14:00,42.8,40.1,30.30,NE,36,6.0,7.0,90,0.00,,,0.00,VWS V14.01,2013-10-29 03:14:00,
2013-10-28 22:15:00,42.8,40.1,30.31,ENE,57,4.0,7.0,90,0.00,,,0.00,VWS V14.01,2013-10-29 03:15:00,
2013-10-28 22:19:00,42.8,40.1,30.30,ENE,59,3.0,6.0,90,0.00,,,0.00,VWS V14.01,2013-10-29 03:19:00,
2013-10-28 22:24:00,42.7,40.0,30.31,NE,44,4.0,7.0,90,0.00,,,0.00,VWS V14.01,2013-10-29 03:24:00,
2013-10-28 22:29:00,42.7,40.3,30.30,NE,48,4.0,7.0,91,0.00,,,0.00,VWS V14.01,2013-10-29 03:29:00,
2013-10-28 22:30:00,43.4,40.1,30.29,ENE,71,5.0,8.0,88,0.00,,,0.00,VWS V14.01,2013-10-29 03:30:00,
2013-10-28 22:34:00,42.5,40.1,30.30,NE,55,5.0,7.0,91,0.00,,,0.00,VWS V14.01,2013-10-29 03:34:00,
2013-10-28 22:40:00,42.4,40.0,30.30,NE,55,2.0,7.0,91,0.00,,,0.00,VWS V14.01,2013-10-29 03:40:00,
2013-10-28 22:45:00,42.2,39.8,30.30,NE,52,4.0,7.0,91,0.00,,,0.00,VWS V14.01,2013-10-29 03:45:00,
2013-10-28 22:50:00,42.1,39.7,30.30,ENE,65,7.0,7.0,91,0.00,,,0.00,VWS V14.01,2013-10-29 03:50:00,
2013-10-28 22:55:00,42.0,39.6,30.30,NE,50,3.0,7.0,91,0.00,,,0.00,VWS V14.01,2013-10-29 03:55:00,
2013-10-28 23:00:00,41.9,39.8,30.30,ENE,59,5.0,7.0,92,0.00,,,0.00,VWS V14.01,2013-10-29 04:00:00,
2013-10-28 23:01:00,41.9,39.8,30.30,NE,54,5.0,5.0,92,0.00,,,0.00,VWS V14.01,2013-10-29 04:01:00,
2013-10-28 23:03:00,41.8,39.7,30.30,ENE,57,4.0,5.0,92,0.00,,,0.00,VWS V14.01,2013-10-29 04:03:00,
2013-10-28 23:04:00,41.8,39.7,30.30,ENE,57,3.0,5.0,92,0.00,,,0.00,VWS V14.01,2013-10-29 04:04:00,
2013-10-28 23:07:00,41.7,39.3,30.30,ENE,67,4.0,5.0,91,0.00,,,0.00,VWS V14.01,2013-10-29 04:07:00,
2013-10-28 23:08:00,41.6,39.5,30.30,ENE,58,3.0,5.0,92,0.00,,,0.00,VWS V14.01,2013-10-29 04:08:00,
2013-10-28 23:13:00,41.5,39.3,30.30,ENE,67,2.0,5.0,92,0.00,,,0.00,VWS V14.01,2013-10-29 04:13:00,
2013-10-28 23:15:00,42.8,40.1,30.31,ENE,57,4.0,7.0,90,0.00,,,0.00,VWS V14.01,2013-10-29 04:15:00,
2013-10-28 23:18:00,41.3,39.2,30.30,ENE,69,4.0,5.0,92,0.00,,,0.00,VWS V14.01,2013-10-29 04:18:00,
2013-10-28 23:23:00,41.1,39.0,30.30,NE,49,4.0,5.0,92,0.00,,,0.00,VWS V14.01,2013-10-29 04:23:00,
2013-10-28 23:25:00,41.1,39.0,30.30,ENE,61,4.0,5.0,92,0.00,,,0.00,VWS V14.01,2013-10-29 04:25:00,
2013-10-28 23:30:00,41.1,39.2,30.30,ENE,76,4.0,5.0,93,0.00,,,0.00,VWS V14.01,2013-10-29 04:30:00,
2013-10-28 23:35:00,41.0,39.1,30.30,NE,54,2.0,5.0,93,0.00,,,0.00,VWS V14.01,2013-10-29 04:35:00,
2013-10-28 23:40:00,40.9,39.0,30.30,ENE,57,2.0,5.0,93,0.00,,,0.00,VWS V14.01,2013-10-29 04:40:00,
2013-10-28 23:45:00,40.7,38.8,30.31,ENE,75,2.0,5.0,93,0.00,,,0.00,VWS V14.01,2013-10-29 04:45:00,
2013-10-28 23:50:00,40.6,38.7,30.30,ENE,78,0.0,2.0,93,0.00,,,0.00,VWS V14.01,2013-10-29 04:50:00,
2013-10-28 23:55:00,40.2,38.1,30.30,ENE,71,0.0,2.0,92,0.00,,,0.00,VWS V14.01,2013-10-29 04:55:00,